DW4236 Weather Reports


Display with metric or nautical units.
time (UTC)temp
F
wind
direction
speed
MPH
gust
MPH
rain 1hr
in
rain 24hr
in
rain mn
in
humidity
%
barometer
mb
20230131195104 36 87 6.0 10.0 0.00 0.09 0.07 58 1023.9
20230131194604 36 115 3.0 12.0 0.01 0.09 0.07 60 1024.0
20230131194104 37 82 8.0 12.0 0.01 0.09 0.07 58 1024.0
20230131193604 38 61 4.0 8.0 0.01 0.09 0.07 59 1024.1
20230131193106 38 76 3.0 8.0 0.01 0.09 0.07 58 1024.0
20230131192605 38 117 3.0 10.0 0.01 0.09 0.07 59 1024.0
20230131192105 38 83 3.0 10.0 0.01 0.09 0.07 57 1023.9
20230131191604 38 2 2.0 9.0 0.01 0.09 0.07 58 1023.8
20230131191104 38 160 1.0 5.0 0.01 0.09 0.07 51 1023.7
20230131190605 38 74 7.0 12.0 0.01 0.09 0.07 49 1023.9
20230131190104 38 31 5.0 9.0 0.01 0.09 0.07 48 1024.0
20230131185604 38 13 6.0 13.0 0.01 0.09 0.07 47 1023.8
20230131185104 38 8 6.0 10.0 0.01 0.09 0.07 47 1023.8
20230131184604 38 40 4.0 12.0 0.01 0.08 0.06 48 1023.7
20230131184104 38 29 6.0 12.0 0.01 0.08 0.06 47 1023.8
20230131183604 38 343 7.0 12.0 0.01 0.08 0.06 48 1023.8
20230131183104 38 341 7.0 12.0 0.01 0.08 0.06 47 1024.0
20230131182604 38 1 3.0 7.0 0.01 0.08 0.06 50 1024.1
20230131182104 38 27 5.0 9.0 0.01 0.08 0.06 50 1024.2
20230131181604 39 36 5.0 9.0 0.01 0.08 0.06 52 1024.5
20230131180604 38 6 5.0 12.0 0.02 0.08 0.06 52 1024.6
20230131180104 38 3 5.0 10.0 0.02 0.08 0.06 54 1024.7
20230131175604 38 3 6.0 16.0 0.02 0.08 0.06 52 1024.7
20230131175104 39 40 3.0 8.0 0.02 0.08 0.06 56 1024.7
20230131174604 38 343 5.0 10.0 0.01 0.07 0.05 56 1024.7
20230131174104 38 5 7.0 12.0 0.01 0.07 0.05 55 1024.7
20230131173104 38 75 8.0 17.0 0.02 0.07 0.05 59 1024.8
20230131172604 37 29 5.0 10.0 0.02 0.07 0.05 62 1024.9
20230131172104 36 37 7.0 13.0 0.02 0.07 0.05 60 1025.1
20230131171604 36 52 6.0 12.0 0.02 0.07 0.05 62 1025.1
20230131170606 36 35 2.0 6.0 0.02 0.06 0.04 61 1025.2
20230131165606 36 53 8.0 14.0 0.03 0.06 0.04 62 1025.4
20230131165104 37 44 7.0 12.0 0.03 0.06 0.04 64 1025.4
20230131164604 37 21 6.0 13.0 0.03 0.06 0.04 63 1025.4
20230131163604 37 55 5.0 12.0 0.02 0.05 0.03 66 1025.4
20230131163104 37 102 5.0 9.0 0.02 0.05 0.03 67 1025.5
20230131162604 36 6 3.0 9.0 0.02 0.05 0.03 71 1025.6
20230131162105 36 24 4.0 9.0 0.03 0.05 0.03 72 1025.6
20230131161104 36 56 7.0 14.0 0.02 0.04 0.02 75 1025.7
20230131160606 36 74 7.0 12.0 0.02 0.04 0.02 76 1025.8
20230131160104 36 58 6.0 12.0 0.02 0.04 0.02 78 1025.9
20230131155604 36 336 3.0 5.0 0.01 0.03 0.01 80 1025.8
20230131155104 35 70 2.0 5.0 0.01 0.03 0.01 81 1025.7
20230131154604 35 346 2.0 7.0 0.01 0.03 0.01 80 1025.8
20230131154105 35 8 4.0 6.0 0.01 0.03 0.01 81 1025.9
20230131153604 34 38 1.0 3.0 0.01 0.03 0.01 81 1025.9
20230131152604 34 63 6.0 9.0 0.01 0.03 0.01 84 1025.9
20230131152104 34 52 3.0 8.0 0.00 0.02 0.00 85 1026.0
20230131151604 34 17 1.0 3.0 0.00 0.02 0.00 85 1025.9
20230131151104 34 351 1.0 2.0 0.00 0.02 0.00 86 1025.9
20230131150604 34 2 1.0 3.0 0.00 0.02 0.00 87 1025.7
20230131145604 33 35 1.0 3.0 0.00 0.02 0.00 87 1025.8
20230131145105 33 31 0.0 2.0 0.00 0.02 0.00 87 1025.8
20230131144610 33 31 1.0 2.0 0.00 0.02 0.00 87 1025.8
20230131144104 33 11 1.0 3.0 0.00 0.02 0.00 87 1025.8
20230131143104 33 49 1.0 3.0 0.00 0.02 0.00 88 1025.5
20230131142604 33 94 1.0 3.0 0.00 0.02 0.00 88 1025.4
20230131142104 33 94 1.0 2.0 0.00 0.02 0.00 88 1025.4
20230131141604 32 94 1.0 3.0 0.00 0.02 0.00 88 1025.3
20230131141104 32 93 0.0 0.0 0.00 0.02 0.00 88 1025.3
20230131140605 32 93 0.0 0.0 0.00 0.02 0.00 88 1025.3
20230131135604 32 94 0.0 1.0 0.00 0.02 0.00 88 1025.1
20230131135104 32 94 1.0 2.0 0.00 0.02 0.00 89 1025.2
20230131134605 32 62 0.0 1.0 0.00 0.02 0.00 89 1025.2
20230131134103 31 62 0.0 2.0 0.00 0.02 0.00 89 1025.1
20230131132604 31 73 1.0 3.0 0.00 0.02 0.00 89 1024.8
20230131132103 31 78 2.0 3.0 0.00 0.02 0.00 90 1024.7
20230131131605 31 79 2.0 3.0 0.00 0.02 0.00 90 1024.7
20230131131104 31 117 2.0 3.0 0.00 0.02 0.00 90 1024.5
20230131130604 31 112 1.0 3.0 0.00 0.02 0.00 90 1024.4
20230131130104 31 126 2.0 3.0 0.00 0.02 0.00 90 1024.3
20230131125604 31 113 2.0 3.0 0.00 0.02 0.00 91 1024.2
20230131125105 31 112 2.0 3.0 0.00 0.02 0.00 90 1023.9
20230131124604 30 78 1.0 5.0 0.00 0.02 0.00 91 1024.0
20230131123604 30 109 2.0 5.0 0.00 0.02 0.00 91 1023.9
20230131123104 30 80 4.0 7.0 0.00 0.02 0.00 91 1024.1
20230131122603 30 77 2.0 3.0 0.00 0.02 0.00 91 1024.0
20230131122105 30 88 3.0 5.0 0.00 0.02 0.00 91 1023.9
20230131121104 30 96 2.0 3.0 0.00 0.02 0.00 91 1023.8
20230131120603 30 69 2.0 5.0 0.00 0.02 0.00 91 1023.8
20230131120104 30 83 2.0 6.0 0.00 0.02 0.00 91 1023.8
20230131115604 30 79 2.0 5.0 0.00 0.02 0.00 91 1023.8
20230131114605 30 104 2.0 3.0 0.00 0.02 0.00 91 1023.6
20230131113604 30 59 1.0 3.0 0.00 0.02 0.00 91 1023.3
20230131113104 30 94 1.0 3.0 0.00 0.02 0.00 91 1023.2
20230131112604 30 70 0.0 2.0 0.00 0.02 0.00 91 1023.0
20230131112105 30 68 1.0 3.0 0.00 0.02 0.00 91 1023.0
20230131111604 30 98 1.0 3.0 0.00 0.02 0.00 91 1022.9
20230131111104 30 103 1.0 5.0 0.00 0.02 0.00 91 1023.0
20230131110604 30 31 2.0 3.0 0.00 0.02 0.00 91 1023.1
20230131105604 30 35 2.0 3.0 0.00 0.02 0.00 91 1023.0
20230131105105 30 83 2.0 3.0 0.00 0.02 0.00 91 1023.0
20230131104603 30 73 2.0 3.0 0.00 0.02 0.00 91 1022.9
20230131104105 30 35 1.0 3.0 0.00 0.02 0.00 91 1023.0
20230131103604 30 120 2.0 6.0 0.00 0.02 0.00 91 1022.9
20230131103104 30 88 3.0 5.0 0.00 0.02 0.00 91 1023.0
20230131102103 30 70 1.0 2.0 0.00 0.02 0.00 91 1022.8
20230131101104 30 56 1.0 5.0 0.00 0.02 0.00 91 1023.0
20230131100604 30 86 1.0 3.0 0.00 0.02 0.00 91 1022.9
20230131100105 30 59 2.0 3.0 0.00 0.02 0.00 91 1022.9
20230131095603 30 64 2.0 3.0 0.00 0.02 0.00 91 1022.8
20230131095105 30 63 2.0 3.0 0.00 0.02 0.00 91 1022.7
20230131094604 30 64 3.0 5.0 0.00 0.02 0.00 91 1022.6
20230131094104 31 77 3.0 6.0 0.00 0.02 0.00 91 1022.6
20230131093603 31 85 2.0 8.0 0.00 0.02 0.00 91 1022.6
20230131093105 31 74 3.0 6.0 0.00 0.02 0.00 91 1022.8
20230131091605 31 70 2.0 3.0 0.00 0.02 0.00 90 1022.2
20230131091104 31 113 2.0 3.0 0.00 0.02 0.00 90 1022.1
20230131090603 31 97 3.0 6.0 0.00 0.02 0.00 90 1022.3
20230131090105 31 68 2.0 3.0 0.00 0.02 0.00 90 1022.4
20230131085604 31 52 2.0 3.0 0.00 0.02 0.00 90 1022.3
20230131085105 31 60 2.0 3.0 0.00 0.02 0.00 90 1022.2
20230131084605 31 95 2.0 5.0 0.00 0.02 0.00 90 1021.8
20230131084104 31 72 1.0 2.0 0.00 0.02 0.00 89 1022.1
20230131083604 31 72 1.0 3.0 0.00 0.02 0.00 89 1022.0
20230131083104 31 72 1.0 5.0 0.00 0.02 0.00 89 1022.1
20230131082604 31 107 2.0 6.0 0.00 0.02 0.00 89 1022.1
20230131082104 31 97 3.0 5.0 0.00 0.02 0.00 89 1022.1
20230131081605 31 43 2.0 5.0 0.00 0.02 0.00 89 1022.1
20230131081104 31 54 2.0 9.0 0.00 0.02 0.00 88 1022.1
20230131080603 31 78 5.0 8.0 0.00 0.02 0.00 88 1021.9
20230131080104 32 89 2.0 5.0 0.00 0.02 0.00 88 1021.9
20230131075603 32 104 5.0 10.0 0.00 0.02 0.00 88 1021.7
20230131074603 32 119 1.0 7.0 0.00 0.02 0.00 88 1021.9
20230131073605 32 101 2.0 9.0 0.00 0.02 0.00 88 1021.7
20230131073104 32 108 5.0 12.0 0.00 0.02 0.00 88 1021.8
20230131072604 32 132 3.0 9.0 0.00 0.02 0.00 89 1022.0
20230131072104 32 50 3.0 10.0 0.00 0.02 0.00 89 1022.3
20230131071604 32 91 2.0 6.0 0.00 0.02 0.00 89 1022.2
20230131071105 32 56 2.0 7.0 0.00 0.02 0.00 89 1022.3
20230131070604 32 68 3.0 9.0 0.00 0.02 0.00 89 1022.1
20230131070104 32 120 2.0 3.0 0.00 0.02 0.00 89 1021.9
20230131065605 32 60 1.0 7.0 0.00 0.02 0.00 89 1022.3
20230131065105 32 56 4.0 12.0 0.00 0.02 0.00 90 1022.3
20230131063604 32 58 3.0 9.0 0.00 0.02 0.00 90 1021.9
20230131063103 32 38 3.0 10.0 0.00 0.02 0.00 90 1021.7
20230131062604 32 33 6.0 12.0 0.00 0.02 0.00 90 1021.6
20230131062104 32 58 4.0 12.0 0.00 0.02 0.00 90 1021.3
20230131061605 32 54 3.0 8.0 0.00 0.02 0.00 90 1021.0
20230131061104 32 122 4.0 7.0 0.00 0.02 0.00 90 1020.8
20230131060604 32 111 3.0 6.0 0.00 0.02 0.00 90 1020.9
20230131060104 32 92 1.0 6.0 0.00 0.02 0.00 90 1021.3
20230131055104 32 113 0.0 2.0 0.00 0.02 0.00 90 1021.1
20230131054604 32 113 2.0 6.0 0.00 0.02 0.00 90 1021.1
20230131054103 32 118 2.0 5.0 0.01 0.02 0.00 90 1021.4
20230131053604 32 82 4.0 6.0 0.01 0.02 0.00 90 1021.5
20230131053105 33 64 3.0 6.0 0.01 0.02 0.00 90 1021.6
20230131052603 33 72 3.0 7.0 0.01 0.02 0.00 90 1021.5
20230131052105 33 64 3.0 9.0 0.01 0.02 0.00 90 1021.4
20230131051605 33 99 5.0 7.0 0.02 0.02 0.00 90 1021.5
20230131051105 33 88 5.0 14.0 0.00 0.02 0.00 90 1021.5
20230131050604 33 99 6.0 12.0 0.00 0.02 0.00 90 1021.3
20230131050104 33 75 7.0 12.0 0.00 0.02 0.00 90 1021.2
20230131045604 33 141 2.0 7.0 0.02 0.02 0.02 90 1021.3
20230131045104 33 125 2.0 7.0 0.02 0.02 0.02 90 1021.2
20230131044604 33 186 1.0 7.0 0.02 0.02 0.02 90 1021.4
20230131043604 33 97 4.0 10.0 0.01 0.01 0.01 89 1021.6
20230131042603 33 105 2.0 6.0 0.01 0.01 0.01 89 1021.9
20230131042104 33 71 2.0 8.0 0.01 0.01 0.01 89 1021.9
20230131041604 33 62 5.0 9.0 0.01 0.01 0.01 89 1021.9
20230131041104 33 94 5.0 12.0 0.00 0.00 0.00 89 1021.8
20230131040604 33 82 5.0 12.0 0.00 0.00 0.00 89 1021.8
20230131040104 33 82 3.0 9.0 0.00 0.00 0.00 89 1021.6
20230131035104 34 96 5.0 15.0 0.00 0.00 0.00 88 1021.4
20230131034104 34 82 3.0 8.0 0.00 0.00 0.00 88 1021.4
20230131033104 34 99 7.0 13.0 0.00 0.00 0.00 87 1021.2
20230131032605 34 94 5.0 12.0 0.00 0.00 0.00 87 1021.1
20230131032105 34 87 8.0 15.0 0.00 0.00 0.00 87 1021.2
20230131031604 34 109 9.0 15.0 0.00 0.00 0.00 87 1021.2
20230131031104 34 111 6.0 15.0 0.00 0.00 0.00 86 1021.1
20230131030605 35 109 10.0 14.0 0.00 0.00 0.00 85 1021.1
20230131030105 35 112 10.0 18.0 0.00 0.00 0.00 84 1021.2
20230131025604 35 128 7.0 13.0 0.00 0.00 0.00 83 1021.2
20230131025104 36 106 9.0 14.0 0.00 0.00 0.00 82 1021.0
20230131024605 36 108 9.0 16.0 0.00 0.00 0.00 81 1021.0
20230131024104 37 101 7.0 13.0 0.00 0.00 0.00 80 1021.0
20230131023604 37 115 7.0 13.0 0.00 0.00 0.00 80 1020.9
20230131023104 37 103 6.0 12.0 0.00 0.00 0.00 79 1020.8
20230131022604 38 99 7.0 12.0 0.00 0.00 0.00 78 1020.9
20230131021604 39 91 6.0 12.0 0.00 0.00 0.00 79 1020.8
20230131021104 40 103 5.0 12.0 0.00 0.00 0.00 79 1020.2
20230131020604 41 108 6.0 10.0 0.00 0.00 0.00 79 1020.3
20230131015604 42 104 5.0 10.0 0.00 0.00 0.00 81 1020.3
20230131015104 43 113 0.0 3.0 0.00 0.00 0.00 82 1020.1
20230131014603 43 155 0.0 1.0 0.00 0.00 0.00 82 1019.8
20230131014104 43 201 0.0 0.0 0.00 0.00 0.00 82 1019.9
20230131013105 43 201 0.0 0.0 0.00 0.00 0.00 82 1019.8
20230131012603 43 201 0.0 2.0 0.00 0.00 0.00 82 1019.8
20230131012105 42 201 1.0 2.0 0.00 0.00 0.00 82 1019.8
20230131011105 42 201 1.0 2.0 0.00 0.00 0.00 82 1019.9
20230131010605 42 201 0.0 0.0 0.00 0.00 0.00 82 1019.8
20230131010104 42 201 0.0 0.0 0.00 0.00 0.00 81 1019.7
20230131005604 42 201 0.0 0.0 0.00 0.00 0.00 81 1019.8
20230131004604 42 201 0.0 0.0 0.00 0.00 0.00 81 1019.9
20230131004104 42 201 0.0 0.0 0.00 0.00 0.00 80 1019.9
20230131003604 43 201 0.0 0.0 0.00 0.00 0.00 80 1020.1
20230131003103 43 201 0.0 0.0 0.00 0.00 0.00 79 1019.9
20230131002604 43 201 0.0 0.0 0.00 0.00 0.00 78 1019.9
20230131001605 44 201 0.0 0.0 0.00 0.00 0.00 77 1019.7
20230131000605 45 201 0.0 2.0 0.00 0.00 0.00 77 1020.2
20230131000105 45 202 1.0 2.0 0.00 0.00 0.00 77 1020.1
20230130235604 45 203 1.0 3.0 0.00 0.00 0.00 76 1020.2
20230130235105 45 35 0.0 1.0 0.00 0.00 0.00 76 1020.3
20230130234605 45 35 1.0 2.0 0.00 0.00 0.00 76 1020.4
20230130234104 45 18 0.0 2.0 0.00 0.00 0.00 76 1020.4
20230130233603 45 17 1.0 3.0 0.00 0.00 0.00 76 1020.4
20230130233103 45 0 1.0 3.0 0.00 0.00 0.00 76 1020.3
20230130232604 45 10 1.0 3.0 0.00 0.00 0.00 76 1020.3
20230130232104 46 117 0.0 0.0 0.00 0.00 0.00 76 1020.2
20230130231605 46 117 0.0 0.0 0.00 0.00 0.00 76 1020.1
20230130231104 46 117 0.0 0.0 0.00 0.00 0.00 75 1019.8
20230130230604 46 117 0.0 0.0 0.00 0.00 0.00 75 1019.8
20230130230105 46 112 0.0 0.0 0.00 0.00 0.00 74 1019.9
20230130224604 46 112 0.0 0.0 0.00 0.00 0.00 73 1020.0
20230130223105 47 113 0.0 2.0 0.00 0.00 0.00 72 1019.9
20230130222604 47 112 2.0 3.0 0.00 0.00 0.00 72 1019.8
20230130222103 47 121 1.0 3.0 0.00 0.00 0.00 72 1019.9
20230130221604 47 130 1.0 3.0 0.00 0.00 0.00 72 1019.8
20230130220605 48 45 2.0 3.0 0.00 0.00 0.00 72 1020.2
20230130220104 48 75 2.0 3.0 0.00 0.00 0.00 71 1020.1
20230130215603 48 100 1.0 5.0 0.00 0.00 0.00 71 1019.9
20230130215103 48 113 1.0 5.0 0.00 0.00 0.00 71 1019.9
20230130214603 48 126 1.0 3.0 0.00 0.00 0.00 71 1019.8
20230130214105 48 117 0.0 2.0 0.00 0.00 0.00 71 1019.8
20230130213604 49 117 0.0 3.0 0.00 0.00 0.00 70 1019.7
20230130213104 49 117 1.0 2.0 0.00 0.00 0.00 70 1019.7
20230130212104 49 96 1.0 2.0 0.00 0.00 0.00 70 1019.6
20230130211604 49 77 2.0 3.0 0.00 0.00 0.00 70 1019.8
20230130211104 49 97 1.0 3.0 0.00 0.00 0.00 70 1019.7
20230130210604 49 97 0.0 2.0 0.00 0.00 0.00 69 1019.7
20230130210104 49 103 1.0 3.0 0.00 0.00 0.00 69 1019.7
20230130205604 49 107 2.0 3.0 0.00 0.00 0.00 68 1019.7
20230130204604 50 122 2.0 3.0 0.00 0.00 0.00 68 1019.6
20230130204103 50 138 2.0 3.0 0.00 0.00 0.00 68 1019.5
20230130203104 50 149 3.0 6.0 0.00 0.00 0.00 68 1019.4
20230130202604 50 141 2.0 3.0 0.00 0.00 0.00 67 1019.5
20230130202104 50 132 3.0 7.0 0.00 0.00 0.00 66 1019.6
20230130201604 51 119 1.0 3.0 0.00 0.00 0.00 67 1019.7
20230130201104 50 99 1.0 3.0 0.00 0.00 0.00 69 1019.8
20230130200604 50 98 3.0 3.0 0.00 0.00 0.00 67 1019.9
20230130200104 50 151 1.0 2.0 0.00 0.00 0.00 67 1020.0
20230130195603 50 151 1.0 2.0 0.00 0.00 0.00 67 1020.1